Port Kembla Harbour Observation History
Time Wind Speed Temp Pressure Rel. Hum Rain
25/04:00pm NNE 9-12 kts 23.5°c 1004.5 hPa n/a n/a
25/03:30pm NNE 10-15 kts 23.1°c 1005.0 hPa n/a n/a
25/03:00pm NNE 11-15 kts 23.1°c 1005.4 hPa n/a n/a
25/02:30pm NNE 11-14 kts 23.1°c 1005.8 hPa n/a n/a
25/02:00pm NNE 10-15 kts 23.1°c 1006.3 hPa n/a n/a
25/01:30pm NNE 8-12 kts 23.2°c 1006.8 hPa n/a n/a
25/01:00pm NNE 8-11 kts 23.3°c 1007.2 hPa n/a n/a
25/12:30pm NNE 8-12 kts 23.3°c 1007.6 hPa n/a n/a
25/12:00pm NNE 9-11 kts 23.2°c 1007.8 hPa n/a n/a
25/11:30am NNE 9-12 kts 23.0°c 1007.9 hPa n/a n/a
25/11:00am NNE 9-11 kts 22.9°c 1008.1 hPa n/a n/a
25/10:30am NNE 9-12 kts 23.1°c 1008.3 hPa n/a n/a
25/10:00am NNE 5-7 kts 23.1°c 1008.4 hPa n/a n/a
25/09:30am NNE 7-9 kts 22.8°c 1008.6 hPa n/a n/a
25/09:00am NNE 7-10 kts 22.8°c 1008.8 hPa n/a n/a
25/08:30am NE 8-11 kts 22.4°c 1008.7 hPa n/a n/a
25/08:00am NNE 6-8 kts 22.2°c 1008.7 hPa n/a n/a
25/07:30am NNE 6-8 kts 22.4°c 1008.6 hPa n/a n/a
25/07:00am NNE 6-7 kts 22.3°c 1008.5 hPa n/a n/a
25/06:30am NNE 6-9 kts 22.4°c 1008.2 hPa n/a n/a
25/06:00am NNE 5-6 kts 22.4°c 1008.0 hPa n/a n/a
25/05:30am NNE 3-5 kts 22.4°c 1007.8 hPa n/a n/a
25/05:00am NNE 5-7 kts 22.4°c 1007.6 hPa n/a n/a
25/04:30am NNE 5-7 kts 22.5°c 1007.5 hPa n/a n/a
25/04:00am NNE 5-7 kts 22.5°c 1007.6 hPa n/a n/a
25/03:30am NNE 4-6 kts 22.6°c 1007.7 hPa n/a n/a
25/03:00am NNE 5-7 kts 22.7°c 1008.0 hPa n/a n/a
25/02:30am NNE 6-10 kts 22.8°c 1008.1 hPa n/a n/a
25/02:00am NNE 5-7 kts 22.9°c 1008.5 hPa n/a n/a
25/01:30am NNE 6-9 kts 23.1°c 1008.7 hPa n/a n/a
25/01:00am NNE 5-7 kts 23.3°c 1008.8 hPa n/a n/a
25/12:30am N 2-4 kts 23.4°c 1009.0 hPa n/a n/a
25/12:00am N 4-5 kts 23.4°c 1009.0 hPa n/a n/a
Time Wind Speed Temp Pressure Rel. Hum Rain
24/11:30pm N 5-7 kts 23.2°c 1009.1 hPa n/a n/a
24/11:00pm NNE 7-10 kts 23.4°c 1009.5 hPa n/a n/a
24/10:30pm N 9-15 kts 23.5°c 1009.8 hPa n/a n/a
24/10:00pm NE 12-17 kts 23.7°c 1009.7 hPa n/a n/a
24/09:30pm NE 11-15 kts 24.2°c 1009.5 hPa n/a n/a
24/09:00pm NE 12-17 kts 24.8°c 1008.9 hPa n/a n/a
24/08:30pm N 10-14 kts 25.1°c 1008.7 hPa n/a n/a
24/08:00pm NE 9-13 kts 25.9°c 1008.4 hPa n/a n/a
24/07:30pm NE 11-17 kts 25.1°c 1007.9 hPa n/a n/a
24/07:00pm NE 12-16 kts 24.6°c 1007.6 hPa n/a n/a
24/06:30pm NE 16-19 kts 24.5°c 1007.6 hPa n/a n/a
24/06:00pm NNE 14-20 kts 25.4°c 1007.3 hPa n/a n/a
24/05:30pm NNE 12-17 kts 24.9°c 1007.4 hPa n/a n/a
24/05:00pm N 10-17 kts 25.1°c 1007.5 hPa n/a n/a
24/04:30pm NNE 10-14 kts 24.8°c 1007.6 hPa n/a n/a
24/04:00pm N 13-17 kts 24.8°c 1007.7 hPa n/a n/a
24/03:30pm NNE 12-18 kts 25.3°c 1008.1 hPa n/a n/a
24/03:00pm NNE 13-19 kts 25.3°c 1008.5 hPa n/a n/a
24/02:30pm N 8-13 kts 24.7°c 1009.4 hPa n/a n/a
24/02:00pm N 8-11 kts 24.3°c 1009.3 hPa n/a n/a
24/01:30pm NNE 8-11 kts 24.3°c 1009.6 hPa n/a n/a
24/01:00pm NNE 8-11 kts 24.4°c 1009.8 hPa n/a n/a
24/12:30pm N 7-9 kts 24.7°c 1010.1 hPa n/a n/a
24/12:00pm N 6-11 kts 25.0°c 1010.3 hPa n/a n/a
24/11:30am NE 9-13 kts 24.3°c 1010.5 hPa n/a n/a
24/11:00am NE 9-13 kts 24.6°c 1010.7 hPa n/a n/a
24/10:30am NE 9-13 kts 24.3°c 1010.8 hPa n/a n/a
24/10:00am NE 8-11 kts 23.9°c 1011.0 hPa n/a n/a
24/09:30am NE 7-10 kts 23.7°c 1011.2 hPa n/a n/a
24/09:00am NE 7-10 kts 23.7°c 1011.3 hPa n/a n/a
24/08:30am NE 5-7 kts 23.7°c 1011.3 hPa n/a n/a
24/08:00am NE 5-9 kts 23.5°c 1011.2 hPa n/a n/a
24/07:30am NNE 5-6 kts 23.6°c 1011.2 hPa n/a n/a
24/07:00am N 3-5 kts 23.0°c 1010.9 hPa n/a n/a
24/06:30am N 3-5 kts 23.1°c 1010.9 hPa n/a n/a
24/06:00am NNE 3-5 kts 22.9°c 1010.8 hPa n/a n/a
24/05:30am CALM 0-1 kts 23.2°c 1010.8 hPa n/a n/a
24/05:00am SW 1-2 kts 23.3°c 1011.0 hPa n/a n/a
24/04:30am SW 1-3 kts 23.4°c 1010.9 hPa n/a n/a
24/04:00am SW 3-5 kts 23.5°c 1011.0 hPa n/a n/a
24/03:30am SW 3-5 kts 23.7°c 1011.1 hPa n/a n/a
24/03:00am SW 3-4 kts 23.7°c 1011.3 hPa n/a n/a
24/02:30am SW 3-4 kts 23.8°c 1011.5 hPa n/a n/a
24/02:00am SW 4-7 kts 23.9°c 1012.0 hPa n/a n/a
24/01:30am SW 4-6 kts 23.9°c 1012.1 hPa n/a n/a
24/01:00am SW 5-6 kts 23.9°c 1012.2 hPa n/a n/a
24/12:30am SW 4-7 kts 24.2°c 1012.2 hPa n/a n/a
24/12:00am SW 5-7 kts 24.3°c 1012.4 hPa n/a n/a
Time Wind Speed Temp Pressure Rel. Hum Rain
23/11:30pm SW 4-7 kts 24.3°c 1012.4 hPa n/a n/a
23/11:00pm SSW 4-6 kts 24.3°c 1012.5 hPa n/a n/a
23/10:30pm S 2-4 kts 24.6°c 1012.5 hPa n/a n/a
23/10:00pm SSW 3-6 kts 24.7°c 1012.6 hPa n/a n/a
23/09:30pm SSW 3-5 kts 24.6°c 1012.5 hPa n/a n/a
23/09:00pm S 2-4 kts 25.0°c 1012.1 hPa n/a n/a
23/08:30pm SSE 2-5 kts 24.9°c 1011.9 hPa n/a n/a
23/08:00pm SSE 3-5 kts 25.0°c 1011.5 hPa n/a n/a
23/07:30pm S 4-6 kts 25.4°c 1011.4 hPa n/a n/a
23/07:00pm SSE 2-5 kts 25.3°c 1011.2 hPa n/a n/a
23/06:30pm ESE 2-3 kts 24.8°c 1010.7 hPa n/a n/a
23/06:00pm NW 1-2 kts 26.6°c 1010.5 hPa n/a n/a
23/05:30pm NNW 1-3 kts 25.9°c 1010.1 hPa n/a n/a
23/05:00pm N 3-4 kts 24.7°c 1010.4 hPa n/a n/a
23/04:30pm NE 3-5 kts 24.5°c 1010.5 hPa n/a n/a
23/04:00pm NE 4-6 kts 24.4°c 1010.5 hPa n/a n/a
23/03:30pm NE 5-7 kts 24.4°c 1010.7 hPa n/a n/a
23/03:00pm ENE 5-6 kts 24.3°c 1010.9 hPa n/a n/a
23/02:30pm ENE 4-6 kts 24.2°c 1011.0 hPa n/a n/a
23/02:00pm ENE 4-6 kts 24.0°c 1011.2 hPa n/a n/a
23/01:30pm E 5-7 kts 23.6°c 1011.5 hPa n/a n/a
23/01:00pm E 4-6 kts 23.6°c 1011.6 hPa n/a n/a
23/12:30pm ESE 5-7 kts 23.4°c 1011.9 hPa n/a n/a
23/12:00pm SE 6-9 kts 23.9°c 1012.1 hPa n/a n/a
23/11:30am SE 7-9 kts 23.8°c 1012.2 hPa n/a n/a
23/11:00am SE 7-11 kts 24.1°c 1012.1 hPa n/a n/a
23/10:30am SSE 7-13 kts 25.0°c 1012.1 hPa n/a n/a
23/10:00am S 6-12 kts 25.4°c 1011.9 hPa n/a n/a
23/09:30am S 7-15 kts 24.8°c 1012.1 hPa n/a n/a
23/09:00am SSW 6-11 kts 24.9°c 1011.9 hPa n/a n/a
23/08:30am SSW 8-14 kts 24.7°c 1011.8 hPa n/a n/a
23/08:00am SW 9-13 kts 24.2°c 1011.6 hPa n/a n/a
23/07:30am SW 10-14 kts 23.6°c 1011.3 hPa n/a n/a
23/07:00am SW 6-9 kts 22.9°c 1010.9 hPa n/a n/a
23/06:30am WSW 4-6 kts 22.5°c 1010.5 hPa n/a n/a
23/06:00am WSW 3-4 kts 22.3°c 1010.1 hPa n/a n/a
23/05:30am WSW 5-7 kts 22.3°c 1009.7 hPa n/a n/a
23/05:00am WSW 3-5 kts 22.2°c 1009.3 hPa n/a n/a
23/04:30am S 2-4 kts 22.7°c 1008.9 hPa n/a n/a
23/04:00am W 2-3 kts 22.6°c 1008.8 hPa n/a n/a
23/03:30am SSW 1-2 kts 22.6°c 1008.3 hPa n/a n/a
23/03:00am NE 1-2 kts 22.6°c 1008.2 hPa n/a n/a
23/02:30am NNW 2-4 kts 22.8°c 1008.2 hPa n/a n/a
23/02:00am WNW 3-5 kts 23.5°c 1008.3 hPa n/a n/a
23/01:30am SE 3-4 kts 23.0°c 1008.4 hPa n/a n/a
23/01:00am SE 10-13 kts 23.6°c 1008.5 hPa n/a n/a
23/12:30am SSE 4-8 kts 23.8°c 1008.5 hPa n/a n/a
23/12:00am E 3-6 kts 23.4°c 1008.4 hPa n/a n/a